CST,Max TemperatureF,Mean TemperatureF,Min TemperatureF,Max Dew PointF,MeanDew PointF,Min DewpointF,Max Humidity, Mean Humidity, Min Humidity, Max Sea Level PressureIn, Mean Sea Level PressureIn, Min Sea Level PressureIn, Max VisibilityMiles, Mean VisibilityMiles, Min VisibilityMiles, Max Wind SpeedMPH, Mean Wind SpeedMPH, Max Gust SpeedMPH,PrecipitationIn, CloudCover, Events, WindDirDegrees
2011-12-1,78,68,59,64,61,57,94,74,57,30.16,30.10,30.05,6,6,6,9,3,,0.00,3,,36
2011-12-2,77,70,62,70,66,59,100,85,69,30.15,30.09,30.05,6,6,6,9,4,,0.00,5,,347
2011-12-3,80,73,66,72,67,64,94,84,65,30.13,30.06,29.99,6,6,2,7,4,,0.00,6,Rain,317
2011-12-4,80,74,69,73,72,70,100,90,79,30.04,29.97,29.89,6,5,2,8,3,,0.00,6,Rain,337
2011-12-5,82,76,71,75,73,70,100,87,74,29.98,29.92,29.88,6,6,1,8,2,,0.00,4,Rain,49
2011-12-6,78,76,73,75,73,72,100,90,78,30.01,29.95,29.90,6,6,3,14,4,,0.00,6,Rain,356
2011-12-7,82,76,71,75,72,70,100,87,70,30.09,30.02,29.97,6,6,2,13,7,,0.00,5,Rain,344
2011-12-8,77,74,71,73,70,68,100,86,78,30.11,30.05,29.99,6,6,6,13,9,,0.00,6,Rain,350
2011-12-9,75,70,66,70,66,63,94,84,73,30.10,30.04,29.99,6,6,6,10,6,,0.00,5,Rain,287
2011-12-10,80,74,68,68,65,63,94,73,54,30.11,30.05,29.98,6,6,6,14,8,,0.00,5,,325
2011-12-11,80,73,66,68,66,63,94,76,58,30.11,30.03,29.97,6,6,1,12,8,,0.00,3,Rain,293
2011-12-12,80,73,66,73,68,61,88,80,73,30.09,30.04,29.99,6,6,6,10,6,,0.00,4,,284
2011-12-13,84,76,69,75,72,68,100,84,70,30.12,30.06,30.01,6,6,2,13,7,,0.00,4,Rain,358
2011-12-14,80,74,69,73,72,70,100,91,78,30.08,30.02,29.97,6,6,4,9,5,,0.00,5,Rain,349
2011-12-15,82,76,71,75,73,72,100,91,74,30.01,29.96,29.91,6,5,2,10,5,,0.00,6,Rain,63
2011-12-16,84,80,75,75,73,72,100,80,66,30.07,30.00,29.94,6,6,5,10,5,,0.00,6,Rain,74
2011-12-17,82,76,71,73,72,70,100,85,70,30.14,30.08,30.03,6,6,6,12,5,,0.00,6,Rain,358
2011-12-18,80,74,69,73,71,68,100,89,74,30.16,30.09,30.04,6,6,4,9,6,,0.00,6,Rain,316
2011-12-19,82,76,69,73,71,68,100,83,69,30.06,30.00,29.92,6,6,6,7,5,,0.00,4,,40
2011-12-20,84,76,69,75,73,70,100,82,70,29.95,29.91,29.85,6,6,6,8,3,,0.00,2,,118
2011-12-21,86,80,75,75,74,72,94,78,66,29.97,29.91,29.87,6,6,6,12,7,,0.00,2,,119
2011-12-22,84,80,75,75,75,73,94,82,70,29.99,29.94,29.86,6,6,6,9,6,,0.00,3,,102
2011-12-23,84,80,77,77,76,75,94,84,74,30.05,29.99,29.95,6,6,6,13,7,,0.00,4,,89
2011-12-24,82,80,77,75,74,72,94,80,70,30.08,30.03,29.98,6,6,6,12,8,,0.00,5,,78
2011-12-25,84,80,75,75,74,72,94,83,74,30.11,30.06,30.01,6,6,6,7,5,,0.00,5,Rain,36
2011-12-26,84,78,71,75,73,70,100,84,66,30.11,30.05,30.01,6,5,0,7,4,,0.00,4,Fog,345
2011-12-27,82,76,71,75,73,72,100,90,70,30.12,30.06,30.03,6,6,3,8,2,,0.00,4,Rain,261
2011-12-28,78,74,71,73,72,72,100,87,78,30.12,30.06,30.00,6,6,6,8,3,,0.00,5,Rain,347
2011-12-29,82,76,69,73,71,70,100,86,70,30.06,30.01,29.96,6,4,0,8,3,,0.00,3,Fog,48
2011-12-30,82,75,68,73,72,68,100,83,70,30.06,30.01,29.96,6,5,0,9,3,,0.00,3,Fog-Rain,80
2011-12-31,84,78,73,75,74,72,94,84,74,30.07,30.01,29.97,6,6,3,16,7,,0.00,4,Rain-Thunderstorm,90